New Orleans, LA

2:13 AM CDT on April 20, 2018 (GMT -0500)
New Orleans International

Weather History for KMSY - December, 2012

Change the Weather History Date:

Tuesday, December 4, 2012

  Actual Average Record
Temperature  
Mean Temperature 71 °F -  
Max Temperature 78 °F 65 °F 80 °F (1998)
Min Temperature 64 °F 44 °F 30 °F (1974)
Cooling Degree Days 6    
Growing Degree Days 21 (Base 50)    
Moisture  
Dew Point 64 °F    
Average Humidity 87    
Maximum Humidity 96    
Minimum Humidity 56    
Precipitation  
Precipitation 1.73 in - - ()
Sea Level Pressure  
Sea Level Pressure 30.17 in    
Wind  
Wind Speed 7 mph (ESE)    
Max Wind Speed 16 mph    
Max Gust Speed 22 mph    
Visibility 7 miles    
Events Rain , Thunderstorm    
Averages and records for this station are not official NWS values.
T = Trace of Precipitation, MM = Missing Value Source: NWS Daily Summary

Daily Weather History Graph

Daily Weather History Graph

Search for Another Location

Airport or City:

Astronomy

Dec. 04, 2012 Rise Set
Actual Time 6:42 AM CST 5:00 PM CST
Civil Twilight 6:15 AM CST 5:27 PM CST
Nautical Twilight 5:46 AM CST 5:56 PM CST
Astronomical Twilight 5:17 AM CST 6:25 PM CST
Moon 10:31 PM CST (12/4) 10:50 AM CST (12/4)
Length of Visible Light 11h 11m
Length of Day
10h 18m
Waning Gibbous, 69% of the Moon is Illuminated
Dec 4
Waning Gibbous
Dec 6
Last Quarter
Dec 13
New
Dec 19
First Quarter
Dec 28
Full

Hourly Weather History & Observations

Time (CST) Temp. Dew Point Humidity Pressure Visibility Wind Dir Wind Speed Gust Speed Precip Events Conditions
12:53 AM 68.0 °F 64.0 °F 87% 30.16 in 10.0 mi SE 6.9 mph - N/A   Mostly Cloudy
1:53 AM 69.1 °F 64.0 °F 84% 30.17 in 10.0 mi ESE 5.8 mph - N/A   Scattered Clouds
2:53 AM 68.0 °F 64.0 °F 87% 30.16 in 10.0 mi SE 6.9 mph - N/A   Mostly Cloudy
3:53 AM 68.0 °F 64.9 °F 90% 30.16 in 10.0 mi SE 5.8 mph - N/A   Mostly Cloudy
4:53 AM 69.1 °F 64.9 °F 87% 30.15 in 10.0 mi SSE 9.2 mph - N/A   Mostly Cloudy
5:53 AM 69.1 °F 64.9 °F 87% 30.17 in 10.0 mi SSE 5.8 mph - N/A   Overcast
6:53 AM 69.8 °F 64.4 °F 83% 30.19 in 10.0 mi SE 5.8 mph - N/A   Mostly Cloudy
7:53 AM 70.0 °F 64.9 °F 84% 30.21 in 10.0 mi SE 6.9 mph - N/A   Mostly Cloudy
8:53 AM 72.0 °F 64.9 °F 78% 30.22 in 10.0 mi SSE 8.1 mph - N/A   Mostly Cloudy
9:53 AM 75.0 °F 64.9 °F 71% 30.24 in 10.0 mi SSE 10.4 mph - N/A   Mostly Cloudy
10:53 AM 75.9 °F 64.9 °F 69% 30.23 in 10.0 mi SSE 12.7 mph - N/A   Mostly Cloudy
11:53 AM 77.0 °F 64.0 °F 64% 30.21 in 10.0 mi SSE 13.8 mph - N/A   Overcast
12:53 PM 75.9 °F 64.0 °F 67% 30.17 in 10.0 mi SSE 10.4 mph - N/A   Overcast
1:53 PM 73.9 °F 64.9 °F 73% 30.16 in 10.0 mi South 9.2 mph - 0.00 in Rain Light Rain
2:22 PM 69.8 °F 66.2 °F 88% 30.15 in 6.0 mi SW 12.7 mph - 0.00 in Rain , Thunderstorm Light Thunderstorms and Rain
2:35 PM 69.8 °F 66.2 °F 88% 30.16 in 2.5 mi SSW 10.4 mph - 0.08 in Rain , Thunderstorm Heavy Thunderstorms and Rain
2:42 PM 69.8 °F 66.2 °F 88% 30.16 in 2.0 mi SW 9.2 mph - 0.18 in Rain Heavy Rain
2:50 PM 66.2 °F 64.4 °F 94% 30.17 in 1.2 mi SW 16.1 mph 21.9 mph 0.32 in Rain Heavy Rain
2:53 PM 66.0 °F 63.0 °F 90% 30.18 in 1.2 mi SW 13.8 mph 21.9 mph 0.47 in Rain Heavy Rain
3:05 PM 64.4 °F 62.6 °F 94% 30.16 in 3.0 mi WSW 9.2 mph - 0.23 in Rain Rain
3:21 PM 64.4 °F 60.8 °F 88% 30.16 in 2.5 mi West 8.1 mph - 0.34 in Rain Heavy Rain
3:53 PM 64.9 °F 63.0 °F 93% 30.17 in 3.0 mi WSW 3.5 mph - 0.78 in Rain Rain
4:53 PM 64.9 °F 63.0 °F 93% 30.17 in 4.0 mi NNE 3.5 mph - 0.21 in Rain Rain
5:03 PM 64.4 °F 62.6 °F 94% 30.16 in 2.5 mi NE 5.8 mph - 0.13 in Rain Rain
5:26 PM 64.4 °F 62.6 °F 94% 30.15 in 6.0 mi ENE 5.8 mph - 0.25 in Rain Light Rain
5:47 PM 66.2 °F 62.6 °F 88% 30.16 in 10.0 mi NNE 4.6 mph - 0.26 in   Overcast
5:53 PM 66.0 °F 63.0 °F 90% 30.17 in 8.0 mi NNE 4.6 mph - 0.26 in Rain Light Rain
6:02 PM 66.2 °F 62.6 °F 88% 30.16 in 10.0 mi ENE 4.6 mph - 0.00 in Rain Light Rain
6:53 PM 66.0 °F 63.0 °F 90% 30.17 in 10.0 mi North 3.5 mph - 0.00 in Rain Light Rain
7:28 PM 66.2 °F 62.6 °F 88% 30.17 in 10.0 mi North 3.5 mph - 0.00 in   Mostly Cloudy
7:49 PM 64.4 °F 62.6 °F 94% 30.17 in 10.0 mi North 5.8 mph - 0.00 in Rain Light Rain
7:53 PM 66.0 °F 63.0 °F 90% 30.18 in 10.0 mi North 4.6 mph - 0.00 in Rain Light Rain
8:01 PM 64.4 °F 62.6 °F 94% 30.17 in 10.0 mi North 4.6 mph - 0.01 in   Overcast
8:40 PM 66.2 °F 64.4 °F 94% 30.17 in 10.0 mi Calm Calm - 0.01 in   Overcast
8:53 PM 66.0 °F 63.0 °F 90% 30.17 in 10.0 mi North 4.6 mph - 0.01 in   Overcast
9:17 PM 64.4 °F 62.6 °F 94% 30.15 in 8.0 mi North 4.6 mph - 0.02 in Rain Light Rain
9:28 PM 64.4 °F 62.6 °F 94% 30.15 in 10.0 mi North 4.6 mph - 0.02 in Rain Light Rain
9:41 PM 64.4 °F 62.6 °F 94% 30.15 in 5.0 mi North 3.5 mph - 0.04 in Rain Light Rain
9:53 PM 64.9 °F 63.0 °F 93% 30.15 in 8.0 mi Calm Calm - 0.05 in Rain Light Rain
10:09 PM 66.2 °F 62.6 °F 88% 30.14 in 10.0 mi ESE 4.6 mph - 0.00 in Rain Light Rain
10:25 PM 66.2 °F 64.4 °F 94% 30.15 in 8.0 mi Variable 3.5 mph - 0.00 in Rain Light Rain
10:39 PM 64.4 °F 62.6 °F 94% 30.15 in 4.0 mi WNW 9.2 mph - 0.06 in Rain Rain
10:44 PM 64.4 °F 62.6 °F 94% 30.15 in 3.0 mi NW 8.1 mph - 0.10 in Rain Light Rain
10:53 PM 64.9 °F 63.0 °F 93% 30.15 in 6.0 mi Variable 3.5 mph - 0.11 in Rain Light Rain
11:53 PM 64.0 °F 63.0 °F 96% 30.16 in 2.0 mi Variable 4.6 mph - 0.37 in Rain Rain